Cloud_Cover
100 100 100 90 100 100 100 100 100 100 100 77 62 100 8 5 5 2 1 1 0 4 48 32 38 6 5 0 1 2 5 2 0 0 0 0 0 0 0 0 0 0 0 0 0
100 100 100 100 100 100 100 100 100 100 100 100 34 100 100 5 5 4 5 1 0 0 1 5 5 3 5 5 2 1 2 0 0 1 2 0 0 0 0 0 0 0 0 0 0
100 100 100 100 38 100 100 100 100 100 100 100 100 7 100 70 5 9 55 0 0 0 0 0 0 0 0 0 0 0 0 0 1 0 0 0 0 0 0 0 0 0 0 0 0
100 100 100 100 88 69 100 100 100 100 100 100 100 99 13 96 95 50 96 1 0 0 0 0 0 0 0 0 0 0 0 0 0 0 0 0 0 0 0 0 0 0 0 0 0
100 100 100 100 75 88 100 100 100 100 100 100 100 100 100 77 100 99 66 5 5 5 22 7 0 2 0 0 0 0 0 0 0 0 0 0 0 0 0 0 0 0 0 0 0
100 100 100 100 77 91 100 100 100 100 100 100 100 100 98 100 100 100 100 88 66 21 6 18 4 25 97 63 0 0 0 0 0 0 0 0 0 0 0 0 0 0 0 0 0
100 100 100 21 6 95 100 100 100 100 100 100 100 77 69 96 100 100 100 95 100 90 15 9 31 30 2 0 0 0 0 0 0 0 0 0 0 0 0 0 0 0 0 0 0
100 100 62 35 86 86 100 100 100 100 100 100 100 99 100 100 94 96 100 89 100 100 92 99 28 8 0 0 0 0 0 0 0 0 0 0 0 0 0 0 0 0 0 0 0
100 35 89 100 85 100 100 100 100 100 100 100 99 100 100 100 100 100 100 96 18 5 59 52 6 5 2 0 0 0 0 0 0 0 0 0 0 0 0 0 0 0 0 0 0
82 98 100 100 100 100 100 100 100 100 100 100 90 92 89 61 60 100 100 100 75 82 35 5 5 5 5 3 0 0 4 3 4 0 0 0 1 0 0 0 0 0 0 0 0
100 100 100 100 100 100 100 100 100 100 100 94 85 56 28 40 100 40 44 98 100 35 15 5 5 5 4 5 1 5 19 45 5 1 5 0 0 0 0 0 0 0 0 0 0
91 100 100 100 100 100 100 100 100 100 87 82 89 32 17 5 5 5 5 18 24 5 5 3 5 5 5 5 19 51 74 5 0 3 39 4 4 0 0 0 0 0 0 0 0
85 100 96 100 100 100 100 100 100 100 98 100 100 100 52 5 5 5 5 5 5 5 5 5 1 5 5 9 75 68 98 23 48 92 39 18 28 1 2 5 5 5 1 0 0
100 100 100 71 93 99 87 100 100 100 100 100 100 74 5 5 5 5 5 4 5 5 5 18 5 5 5 61 70 100 63 100 100 100 97 88 96 64 22 5 5 36 4 5 5
100 100 100 100 100 100 100 100 97 99 33 5 5 5 5 5 5 4 4 8 22 62 51 3 5 5 6 94 100 98 100 100 100 100 100 94 99 97 100 100 86 100 100 95 100
4 5 36 78 68 35 94 87 70 7 44 3 3 5 5 5 4 5 32 17 57 89 97 56 14 60 12 72 100 100 100 100 100 100 100 100 94 100 100 100 100 100 100 100 100
0 0 0 0 0 3 3 0 5 5 2 3 5 3 1 0 0 2 40 92 48 76 40 5 75 100 100 100 100 100 100 100 100 100 100 79 100 99 100 100 100 100 100 100 100
0 0 0 0 0 0 0 2 6 2 5 5 5 5 5 8 5 4 12 36 95 100 52 97 64 73 100 100 100 100 100 100 100 87 98 100 100 100 100 100 100 100 100 100 100
0 0 0 0 0 0 0 5 5 1 0 5 5 5 5 5 5 19 94 100 100 100 26 100 100 100 79 92 100 100 100 90 100 100 100 100 100 100 100 100 100 100 100 100 100
0 0 0 0 0 0 1 3 5 4 0 0 0 0 0 4 27 31 48 42 100 51 100 100 100 100 100 100 98 87 100 100 100 91 36 99 100 100 100 100 100 100 100 100 100
0 0 0 0 0 0 2 1 0 0 0 0 0 0 0 0 4 1 4 5 4 5 19 38 79 94 51 93 100 86 99 71 83 100 90 99 99 100 100 100 100 100 100 100 100
0 0 0 0 0 0 0 0 0 0 0 0 0 0 0 0 0 0 0 0 0 1 6 5 5 24 0 2 10 5 5 32 77 100 44 77 83 100 100 100 100 100 100 100 100
0 0 0 0 0 0 0 0 0 0 0 0 0 0 0 0 0 0 0 0 0 0 2 4 5 5 0 0 3 5 5 5 5 5 69 32 18 10 62 100 100 100 100 100 100
0 0 0 0 0 0 0 0 0 0 0 0 0 0 0 0 0 0 0 0 0 0 0 4 5 1 0 0 0 2 0 1 2 5 5 89 100 41 22 73 100 100 100 100 100
0 0 0 0 0 0 0 0 0 0 0 0 0 0 0 0 0 0 0 0 0 0 0 0 3 4 3 0 0 0 0 0 5 1 2 2 14 5 62 20 80 56 5 13 100
5 0 0 0 0 0 0 0 0 0 0 0 0 0 0 0 0 0 0 0 0 0 0 1 3 2 5 0 0 0 0 0 0 0 5 2 4 2 1 16 92 100 100 86 95
7 5 0 0 0 0 0 0 0 0 0 0 0 0 0 0 0 0 0 0 5 4 5 4 1 4 4 4 5 3 5 5 4 0 0 4 0 0 5 5 5 5 27 96 100